Flag for U.S.A. Weather past 2 weeks in Moreno Valley, California, U.S.A.

Now
88 °F

Sunny.


Feels Like: 87 °F
Forecast: 61 / 87 °F
Wind: 5 mph from North

Location: Riverside / March Air Force Base

Current Time: Aug 21, 2014 at 3:52:49 PM

Latest Report: Aug 21, 2014 at 2:58 PM


Visibility: 10 mi

Pressure: 29.88 "Hg

Humidity: 39%

Dew point: 60 °F

Location of Moreno ValleyLocation

Historic Weather in Moreno Valley — Graph

°F

Moreno Valley temperature yesterday

Maximum temperature yesterday: 79 °F (at 12:58 PM)
Minimum temperature yesterday: 63 °F (at 4:58 AM)
Average temperature yesterday: 69 °F

Past Weeks' High & Low Weather Summary

 TemperatureHumidityPressure
High99 °F (Aug 18, 1:58 PM)100% (Aug 7, 6:58 AM)30.01 "Hg (Aug 7, 6:58 AM)
Low57 °F (Aug 7, 6:58 AM)16% (Aug 18, 1:58 PM)29.75 "Hg (Aug 18, 3:58 PM)
Average76 °F56%29.92 "Hg
* Reported Aug 6 1:58 PM — Aug 21 1:58 PM, Moreno Valley, Weather by CustomWeather, © 2014

Note: Actual official high and low records may vary slightly from our data, if they occured in-between our weather recording intervals... More about our weather records

Advertising

Moreno Valley weather history for previous 24 hours

 ConditionsComfort  
Time TempWeatherWind HumidityBarometerVisibility
1:58 PM
Aug 21
85 °FScattered clouds.10 mph46%29.91 "Hg10 mi
12:58 PM83 °FPassing clouds.2 mph50%29.92 "Hg10 mi
11:58 AM80 °FScattered clouds.5 mph58%29.94 "Hg10 mi
10:58 AM76 °FSunny.2 mph67%29.95 "Hg10 mi
9:58 AM73 °FSunny.3 mph74%29.95 "Hg10 mi
8:58 AM68 °FSunny.No wind85%29.95 "Hg10 mi
7:58 AM65 °FSunny.2 mph94%29.94 "Hg10 mi
6:58 AM62 °FClear.No wind100%29.93 "Hg10 mi
5:58 AM61 °FClear.No wind100%29.91 "Hg10 mi
4:58 AM61 °FClear.2 mph100%29.91 "Hg10 mi
3:58 AM63 °FClear.No wind100%29.92 "Hg10 mi
2:58 AM63 °FClear.3 mph100%29.92 "Hg10 mi
1:58 AM64 °FPassing clouds.2 mph97%29.93 "Hg10 mi
12:58 AM65 °FClear.6 mph90%29.92 "Hg10 mi
11:58 PM
Aug 20
66 °FClear.No wind87%29.93 "Hg10 mi
10:58 PM66 °FClear.No wind91%29.92 "Hg10 mi
9:58 PM67 °FClear.No wind89%29.92 "Hg10 mi
8:58 PM70 °FClear.5 mph82%29.90 "Hg10 mi
7:58 PM73 °FScattered clouds.No wind68%29.88 "Hg10 mi
6:58 PM74 °FPartly sunny.1 mph59%29.87 "Hg10 mi
5:58 PM73 °FPartly sunny.3 mph66%29.88 "Hg10 mi
4:58 PM73 °FThundershowers. Broken clouds.5 mph65%29.89 "Hg10 mi
3:58 PM72 °FLight rain. Broken clouds.No wind69%29.90 "Hg10 mi
Weather by CustomWeather, © 2014

See weather overviewHow to use our weather pages